Hundvaag 1 weather for May 1992
Month no. 59
Obs.
Da.
Temp. Dew Point Precip. Wind
Speed
Wind gusts Cloud cover Press. Humidity Wind dir. Sunny OPT
01.05.1992 5,9   21,0             1  
02.05.1992 8,0   3,9                
03.05.1992 5,0   1,8             1  
04.05.1992 6,8   0,0                
05.05.1992 7,8   7,0                
06.05.1992 6,4   16,0                
07.05.1992 8,0   21,6                
08.05.1992 4,8   5,2                
09.05.1992 3,2   5,9             1  
10.05.1992 5,0   3,5             1  
11.05.1992 4,0   1,1             1  
12.05.1992 6,3   1,4                
13.05.1992 8,4   12,1             1  
14.05.1992 11,9   0,0             1  
15.05.1992 17,3   0,0             1  
16.05.1992 8,6   0,1                
17.05.1992 8,9   0,5             1  
18.05.1992 9,1   0,0             1  
19.05.1992 11,9   0,0             1  
20.05.1992 13,1   0,0             1  
21.05.1992 13,4   0,0             1  
22.05.1992 16,3   0,0             1  
23.05.1992 10,1   0,0             1  
24.05.1992 16,4   0,0             1  
25.05.1992 16,0   0,0                
26.05.1992 14,8   0,0             1  
27.05.1992 15,0   1,5             1  
28.05.1992 16,9   0,0             1  
29.05.1992 19,2   0,0             1  
30.05.1992 16,6   0,0             1  
31.05.1992 17,4   0,0             1  
Avrg/Sum 10,7   102,6             22